Home > Weather > Cluj-Napoca > Past weeks

Flag for Romania Weather for the Past 2 Weeks in Cluj-Napoca, Romania

Now
41 °F

Sunny.


Feels Like: 36 °F
Forecast: 29 / 45 °F
Wind: 7 mph from Southeast

Location: Cluj Airport-Napoca

Current Time: Feb 7, 2016 at 5:14:17 PM

Latest Report: Feb 7, 2016 at 4:30 PM


Visibility: 10 mi

Pressure: 30.15 "Hg

Humidity: 66%

Dew point: 30 °F

Location of Cluj-NapocaLocation

Historic Weather in Cluj-Napoca — Graph

°F

Cluj-Napoca Temperature Yesterday

Maximum temperature yesterday: 43 °F (at 3:00 PM)
Minimum temperature yesterday: 27 °F (at 8:30 AM)
Average temperature yesterday: 33 °F

High & Low Weather Summary for the Past Weeks

 TemperatureHumidityPressure
High52 °F (Jan 31, 12:30 PM)100% (Jan 23, 11:30 PM)30.54 "Hg (Jan 23, 11:30 PM)
Low5 °F (Jan 24, 5:30 AM)47% (Jan 23, 3:30 PM)29.80 "Hg (Feb 3, 11:30 PM)
Average33 °F91%30.23 "Hg
* Reported Jan 23 3:00 PM — Feb 7 3:30 PM, Cluj-Napoca, Weather by CustomWeather, © 2016

Note: Actual official high and low records may vary slightly from our data, if they occured in-between our weather recording intervals... More about our weather records

Advertising

Cluj-Napoca Weather History for the Previous 24 Hours

 ConditionsComfort  
Time TempWeatherWind HumidityBarometerVisibility
3:30 PM
Sun, Feb 7
41 °FSunny.10 mph61%30.18 "Hg10 mi
3:00 PM43 °FPassing clouds.8 mph61%30.18 "HgN/A
2:30 PM43 °FPassing clouds.8 mph57%30.18 "HgN/A
2:00 PM41 °FSunny.10 mph61%30.18 "Hg10 mi
1:30 PM41 °FSunny.12 mph57%30.21 "Hg10 mi
1:00 PM39 °FPassing clouds.13 mph61%30.21 "HgN/A
12:30 PM39 °FSunny.13 mph65%30.21 "Hg10 mi
12:00 PM37 °FSunny.13 mph70%30.24 "Hg10 mi
11:30 AM36 °FSunny.14 mph75%30.24 "Hg10 mi
11:00 AM36 °FSunny.13 mph81%30.24 "Hg10 mi
10:30 AM34 °FSunny.13 mph81%30.24 "Hg10 mi
10:00 AM32 °FSunny.12 mph80%30.27 "Hg10 mi
9:30 AM32 °FSunny.12 mph80%30.27 "Hg10 mi
9:00 AM28 °FSunny.9 mph86%30.27 "Hg10 mi
8:30 AM28 °FSunny.10 mph86%30.27 "Hg10 mi
8:00 AM27 °FSunny.10 mph93%30.27 "Hg10 mi
7:30 AM27 °FClear.8 mph93%30.27 "Hg10 mi
7:00 AM27 °FClear.8 mph93%30.30 "Hg10 mi
6:30 AM27 °FClear.7 mph93%30.30 "Hg10 mi
6:00 AM28 °FClear.9 mph86%30.30 "Hg10 mi
5:30 AM28 °FClear.7 mph86%30.30 "Hg10 mi
5:00 AM28 °FPassing clouds.7 mph86%30.30 "HgN/A
4:00 AM28 °FClear.9 mph86%30.30 "Hg10 mi
3:00 AM28 °FClear.6 mph86%30.30 "Hg10 mi
2:00 AM28 °FPassing clouds.6 mph86%30.33 "HgN/A
1:00 AM30 °FClear.5 mph80%30.33 "Hg10 mi
12:00 AM30 °FClear.7 mph86%30.33 "Hg10 mi
11:00 PM
Sat, Feb 6
30 °FClear.3 mph86%30.36 "Hg10 mi
10:30 PM30 °FClear.6 mph86%30.36 "Hg10 mi
10:00 PM30 °FClear.6 mph86%30.36 "Hg10 mi
9:30 PM30 °FClear.5 mph86%30.36 "Hg10 mi
9:00 PM32 °FClear.5 mph80%30.36 "Hg10 mi
8:30 PM32 °FPassing clouds.2 mph87%30.36 "HgN/A
8:00 PM34 °FPassing clouds.1 mph75%30.36 "HgN/A
7:30 PM34 °FPassing clouds.5 mph81%30.36 "HgN/A
7:00 PM34 °FClear.5 mph75%30.36 "Hg10 mi
6:30 PM34 °FClear.2 mph75%30.36 "Hg10 mi
6:00 PM36 °FClear.3 mph70%30.36 "Hg10 mi
5:30 PM37 °FPassing clouds.6 mph70%30.36 "HgN/A
5:00 PM39 °FPassing clouds.7 mph61%30.36 "HgN/A
Weather by CustomWeather, © 2016

See weather overviewHow to use our weather pages